User: anonymous   Login
Location: Melara
(45.0500°N, 11.1833°E)
Time: 22:21:03
(UTC+00:00)
Language:

METEOR M2 - Orbit

View from above orbital plane
View from above orbital plane
View from above satellite
View from above satellite

Ground track
Ground track

The orbit data is extracted from the following two-line orbital elements,

1 40069U 14037A   24148.53998171  .00000198  00000-0  11035-3 0  9997
2 40069  98.4360 143.7016 0006897  64.2639 295.9251 14.20968019512699
Epoch (UTC): 27 May 2024 12:57:34
Eccentricity: 0.0006897
inclination: 98.4360°
perigee height: 817 km
apogee height: 827 km
right ascension of ascending node: 143.7016°
argument of perigee: 64.2639°
revolutions per day: 14.20968019
mean anomaly at epoch: 295.9251°
orbit number at epoch: 51269

The dashed part of the orbit path shows where the satellite is in the earth's shadow,  

DLR